GW3218 Weather Reports


Display with metric or nautical units.
time (UTC)temp
F
wind
direction
speed
MPH
gust
MPH
rain 1hr
in
rain 24hr
in
rain mn
in
humidity
%
barometer
mb
20260507051523 62 346 0.0 2.0 0.00 0.00 0.00 68 1018.0
20260507050029 62 346 0.0 4.0 0.00 0.00 0.00 66 1018.0
20260507044525 63 352 0.0 4.0 0.00 0.00 0.00 65 1018.0
20260507043026 64 336 2.0 5.0 0.00 0.00 0.00 64 1017.8
20260507041526 64 349 0.0 4.0 0.00 0.00 0.00 62 1017.8
20260507040021 65 326 1.0 6.0 0.00 0.00 0.00 62 1017.5
20260507034525 65 328 2.0 8.0 0.00 0.00 0.00 61 1017.3
20260507033031 66 333 3.0 9.0 0.00 0.00 0.00 59 1017.2
20260507031537 67 333 3.0 6.0 0.00 0.00 0.00 57 1017.1
20260507030024 68 319 4.0 8.0 0.00 0.00 0.00 56 1016.8
20260507024524 68 321 1.0 8.0 0.00 0.00 0.00 55 1016.7
20260507023026 69 9 3.0 9.0 0.00 0.00 0.00 54 1016.5
20260507021526 70 292 4.0 9.0 0.00 0.00 0.00 53 1016.5
20260507020025 71 290 5.0 11.0 0.00 0.00 0.00 51 1016.3
20260507014527 72 290 6.0 11.0 0.00 0.00 0.00 49 1016.3
20260507013017 73 288 4.0 10.0 0.00 0.00 0.00 48 1016.2
20260507011528 74 290 5.0 10.0 0.00 0.00 0.00 46 1016.0
20260507010012 75 303 6.0 13.0 0.00 0.00 0.00 45 1015.9
20260507004512 76 305 5.0 12.0 0.00 0.00 0.00 43 1015.8
20260507003016 76 294 5.0 12.0 0.00 0.00 0.00 43 1015.8
20260507001519 77 310 5.0 12.0 0.00 0.00 0.00 41 1015.7
20260507000013 78 352 5.0 13.0 0.00 0.00 0.00 39 1015.6
20260506234514 78 323 5.0 12.0 0.00 0.00 0.00 39 1015.5
20260506233014 79 276 7.0 14.0 0.00 0.00 0.00 38 1015.5
20260506231515 80 288 5.0 11.0 0.00 0.00 0.00 37 1015.6
20260506230017 79 325 6.0 11.0 0.00 0.00 0.00 36 1015.7
20260506224514 78 315 5.0 11.0 0.00 0.00 0.00 35 1015.9
20260506223017 79 318 3.0 10.0 0.00 0.00 0.00 35 1015.9
20260506221511 78 291 5.0 10.0 0.00 0.00 0.00 36 1016.1
20260506220016 76 360 6.0 11.0 0.00 0.00 0.00 38 1016.3
20260506214514 77 283 6.0 12.0 0.00 0.00 0.00 38 1016.3
20260506213014 75 332 4.0 13.0 0.00 0.00 0.00 41 1016.7
20260506211520 75 318 3.0 12.0 0.00 0.00 0.00 41 1016.9
20260506210018 75 346 4.0 10.0 0.00 0.00 0.00 42 1016.9
20260506204516 73 292 4.0 10.0 0.00 0.00 0.00 43 1017.1
20260506203014 71 236 4.0 15.0 0.00 0.00 0.00 45 1017.1
20260506201519 70 281 3.0 9.0 0.00 0.00 0.00 48 1017.2
20260506200013 71 281 6.0 11.0 0.00 0.00 0.00 46 1017.3
20260506194516 70 77 0.0 9.0 0.00 0.00 0.00 49 1017.6
20260506193015 69 304 0.0 6.0 0.00 0.00 0.00 50 1017.9
20260506191517 68 211 3.0 8.0 0.00 0.00 0.00 49 1018.1
20260506190016 68 182 2.0 7.0 0.00 0.00 0.00 50 1018.2
20260506184517 66 220 1.0 8.0 0.00 0.00 0.00 51 1018.3
20260506183016 66 190 1.0 9.0 0.00 0.00 0.00 54 1018.4
20260506181518 64 314 0.0 11.0 0.00 0.00 0.00 56 1018.6
20260506180025 63 238 3.0 9.0 0.00 0.00 0.00 57 1018.7
20260506174520 63 112 4.0 10.0 0.00 0.00 0.00 57 1018.6
20260506173021 62 96 3.0 8.0 0.00 0.00 0.00 59 1018.6
20260506171517 61 200 1.0 6.0 0.00 0.00 0.00 61 1018.6
20260506170017 60 146 4.0 8.0 0.00 0.00 0.00 64 1018.6
20260506164516 59 175 2.0 5.0 0.00 0.00 0.00 65 1018.6
20260506163025 58 160 3.0 8.0 0.00 0.00 0.00 66 1018.6
20260506161516 58 232 0.0 6.0 0.00 0.00 0.00 67 1018.5
20260506160016 57 22 0.0 4.0 0.00 0.00 0.00 70 1018.5
20260506154521 55 84 3.0 4.0 0.00 0.00 0.00 73 1018.4
20260506153018 54 119 1.0 4.0 0.00 0.00 0.00 76 1018.5
20260506151522 53 75 0.0 2.0 0.00 0.00 0.00 78 1018.5
20260506150018 52 113 2.0 3.0 0.00 0.00 0.00 81 1018.5
20260506144518 51 276 0.0 1.0 0.00 0.00 0.00 84 1018.5
20260506143023 49 276 0.0 1.0 0.00 0.00 0.00 86 1018.5
20260506141520 48 276 0.0 2.0 0.00 0.00 0.00 87 1018.5
20260506140019 47 276 0.0 1.0 0.00 0.00 0.00 85 1018.4
20260506134516 46 244 0.0 1.0 0.00 0.01 0.00 83 1018.2
20260506133017 46 244 0.0 0.0 0.00 0.01 0.00 83 1018.0
20260506131523 46 244 0.0 0.0 0.00 0.02 0.00 81 1017.9
20260506130018 47 244 0.0 0.0 0.00 0.08 0.00 81 1017.7
20260506124517 47 244 0.0 0.0 0.00 0.13 0.00 80 1017.7
20260506123019 48 244 0.0 0.0 0.00 0.14 0.00 78 1017.5
20260506121518 47 244 0.0 0.0 0.00 0.14 0.00 77 1017.5
20260506120020 48 244 0.0 0.0 0.00 0.14 0.00 79 1017.6
20260506114516 48 244 0.0 0.0 0.00 0.14 0.00 78 1017.4
20260506113018 48 244 0.0 0.0 0.00 0.14 0.00 77 1017.5
20260506111522 48 244 0.0 0.0 0.00 0.14 0.00 77 1017.4
20260506110022 49 244 0.0 0.0 0.00 0.14 0.00 79 1017.4
20260506104515 49 244 0.0 0.0 0.00 0.14 0.00 79 1017.4
20260506103020 49 244 0.0 0.0 0.00 0.14 0.00 77 1017.4
20260506101527 49 244 0.0 0.0 0.00 0.15 0.00 78 1017.4
20260506100019 50 244 0.0 0.0 0.00 0.15 0.00 79 1017.4
20260506094522 50 232 0.0 1.0 0.00 0.15 0.00 80 1017.4
20260506093021 50 217 0.0 0.0 0.00 0.15 0.00 78 1017.4
20260506091518 51 211 0.0 0.0 0.00 0.15 0.00 78 1017.6
20260506090019 51 211 0.0 0.0 0.00 0.15 0.00 75 1017.8
20260506084518 52 212 1.0 3.0 0.00 0.15 0.00 73 1017.9
20260506083019 52 317 0.0 0.0 0.00 0.15 0.00 75 1017.9
20260506081514 52 317 0.0 3.0 0.00 0.15 0.00 73 1017.9
20260506073032 54 344 0.0 4.0 0.00 0.16 0.00 72 1018.1
20260506071518 54 329 0.0 3.0 0.00 0.17 0.00 71 1018.2
20260506061516 56 294 0.0 5.0 0.00 0.18 0.18 68 1017.5